SCP
2 2 2 2 2 1 1 1 1 1 1 1 1 1 1 1 1 1 1 1 2 2 2 3 3 2 1 1 1 1 0 0 0 0 0 0 0 0 0 0 0 0 0
2 2 3 3 2 2 1 1 1 1 1 1 1 1 1 1 1 1 1 2 2 2 3 3 3 3 2 1 1 1 1 1 0 0 0 0 0 0 0 0 0 0 1
3 3 3 2 2 2 2 2 2 2 2 2 2 2 2 1 2 2 2 2 2 3 3 4 4 3 2 2 1 1 1 1 1 1 0 0 0 1 1 1 1 1 1
4 4 3 2 2 2 2 2 2 3 3 3 2 2 2 2 2 2 2 3 3 4 5 5 5 3 3 2 2 1 1 1 1 1 0 0 1 1 1 1 1 1 1
5 5 4 3 3 2 2 2 2 3 3 3 2 2 2 2 2 2 3 4 4 5 6 6 5 4 3 2 1 1 1 1 1 1 1 0 0 1 1 1 1 0 0
6 5 4 4 3 3 2 2 2 2 3 3 3 3 3 2 2 2 2 3 5 5 5 5 4 4 3 2 1 1 1 1 1 1 0 0 0 0 0 0 0 0 0
7 6 5 5 4 3 3 2 2 2 3 3 3 3 3 2 1 1 1 2 3 3 3 3 2 2 2 1 1 1 1 1 1 0 0 0 0 0 0 0 0 0 0
9 8 7 6 5 4 3 2 2 2 3 3 3 3 2 2 1 1 1 1 1 1 1 1 1 1 1 1 1 1 1 1 1 0 0 0 0 0 0 0 0 0 0
10 10 9 8 6 4 3 2 2 3 3 3 3 2 2 2 1 1 1 1 1 1 1 1 1 1 1 1 1 1 1 1 1 0 0 0 0 0 0 0 0 0 0
10 10 10 8 6 4 3 3 2 2 3 3 3 3 2 2 1 1 1 1 1 1 1 1 1 0 0 0 0 1 1 1 1 0 0 0 0 0 0 0 0 0 0
9 9 9 7 6 4 3 3 2 2 2 3 3 3 2 1 1 1 1 1 1 1 1 0 0 0 0 0 0 0 0 0 0 0 0 0 0 0 0 0 0 0 0
7 8 7 7 6 4 3 3 3 3 3 3 4 3 2 1 1 1 0 0 0 0 0 0 0 0 0 0 0 0 0 0 0 0 0 0 0 0 0 0 0 0 0
6 7 7 6 6 4 3 3 3 3 3 4 4 3 2 1 1 1 0 0 0 0 0 0 0 0 0 0 0 0 0 0 0 0 0 0 0 0 0 0 0 0 0
7 7 7 7 6 4 4 3 3 3 3 4 4 3 2 2 1 1 1 1 0 0 0 0 0 0 0 0 0 0 0 0 0 0 0 0 0 0 0 0 0 0 0
8 8 7 7 6 5 4 3 2 2 2 2 3 2 2 2 1 1 1 1 0 0 0 0 0 0 0 0 0 0 0 0 0 0 0 0 0 0 0 0 0 0 0
7 7 7 6 6 5 4 3 2 1 1 1 1 2 2 1 1 0 0 0 0 0 0 0 0 0 0 0 0 0 0 0 0 0 0 0 0 0 0 0 0 0 0
6 5 5 5 5 5 5 4 3 2 1 1 1 1 1 1 0 0 0 0 0 0 0 0 0 0 0 0 0 0 0 0 0 0 0 0 0 0 0 0 0 0 0
4 3 3 4 4 5 5 5 4 4 2 1 1 0 0 0 0 0 0 0 0 0 0 0 0 0 0 0 0 0 0 0 0 0 0 0 0 0 0 0 0 0 0
3 3 3 3 4 5 5 5 5 5 4 3 1 0 0 0 0 0 0 0 0 0 0 0 0 0 0 0 0 0 0 0 0 0 0 0 0 0 0 0 0 0 0
4 3 2 3 5 6 6 6 6 5 5 4 2 1 1 0 0 0 0 0 0 0 0 0 0 0 0 0 0 0 0 0 0 0 0 0 0 0 0 0 0 0 0
4 3 2 4 5 6 7 6 6 5 5 4 3 2 1 1 1 1 1 0 0 0 0 0 0 0 0 0 0 0 0 0 0 0 0 0 0 0 0 0 0 0 0
4 3 3 4 5 6 6 6 5 5 4 4 4 3 2 1 1 1 1 0 0 0 0 0 0 0 1 1 0 0 0 0 0 0 0 0 0 0 0 0 0 0 0
3 2 2 4 5 5 5 5 4 3 3 3 3 2 1 1 1 1 0 0 0 0 0 0 0 0 1 1 1 0 0 0 0 0 0 0 0 0 0 0 0 0 0
2 1 1 2 3 4 4 3 2 2 2 2 2 2 1 0 0 0 0 0 0 0 0 0 0 0 0 0 0 0 0 0 0 0 0 0 0 0 0 0 0 0 0
1 1 0 1 1 2 2 2 1 1 1 1 1 1 1 0 0 0 0 0 0 0 0 0 0 0 0 0 0 0 0 0 0 0 0 0 0 0 0 0 0 0 0
0 0 0 0 0 1 1 1 1 0 1 1 1 1 1 0 0 0 0 0 0 0 0 0 0 0 0 0 0 0 0 0 0 0 0 0 0 0 0 0 0 0 0
Wind_Speed
6 5 5 4 4 4 4 3 3 3 3 3 2 2 1 1 1 1 1 1 2 2 1 1 2 2 2 2 2 2 3 3 5 3 2 2 2 2 2 2 2 2 2
6 5 5 4 4 4 4 4 4 3 3 2 2 2 1 1 1 1 2 1 1 1 1 1 2 1 1 1 1 2 2 3 4 4 2 2 2 2 2 1 1 1 1
6 6 5 5 5 5 5 4 3 3 3 3 3 3 2 2 1 2 2 1 1 1 1 1 2 1 1 1 1 2 2 2 3 3 2 2 1 1 1 1 1 1 1
6 7 6 6 6 6 5 5 4 4 4 3 3 2 2 2 1 1 1 1 1 0 0 0 1 1 2 2 1 2 2 2 1 2 2 1 1 1 0 1 1 1 1
6 7 7 7 6 6 6 6 6 5 4 3 3 2 2 1 1 2 2 2 1 0 0 0 1 1 2 2 1 2 1 1 1 1 1 1 1 1 1 1 1 1 1
7 7 6 6 6 7 6 6 5 4 4 4 3 2 2 1 1 2 2 2 2 1 0 1 1 1 2 2 2 2 1 1 1 1 1 2 2 2 1 1 0 0 1
5 5 5 6 6 6 6 6 5 5 4 4 3 3 2 1 1 2 3 2 2 1 0 1 1 2 2 2 2 2 2 3 2 1 1 2 2 2 1 1 1 1 1
5 5 5 5 5 5 6 5 5 4 4 3 3 3 2 1 1 2 2 2 2 1 1 0 1 2 2 1 1 2 2 2 2 1 1 2 2 1 1 1 1 1 0
5 5 5 5 5 6 6 5 4 4 3 3 3 3 2 1 1 2 3 2 2 1 1 1 1 1 3 2 1 1 2 2 2 2 1 1 1 1 1 1 1 1 0
5 4 5 5 5 6 6 6 5 5 4 4 3 2 2 1 1 2 3 2 1 1 1 1 2 2 3 3 1 0 1 2 2 2 3 3 2 2 2 1 1 1 0
4 4 5 5 5 5 4 4 5 5 4 4 3 2 2 1 1 2 3 2 2 1 1 0 1 3 3 2 1 1 1 1 1 1 2 2 2 2 1 1 0 1 1
4 4 4 4 4 5 5 5 5 5 5 4 3 2 1 1 1 1 2 2 2 2 1 0 0 1 2 2 2 1 1 1 1 1 2 2 2 2 2 1 1 1 1
4 4 4 4 3 4 5 5 4 4 4 3 3 3 2 1 0 1 1 2 2 1 1 1 2 2 2 2 3 3 2 2 1 1 1 2 2 2 2 1 1 1 1
4 4 3 4 4 3 3 4 4 4 4 4 3 3 2 2 1 1 1 1 2 1 1 2 3 4 3 3 3 3 2 2 1 1 1 2 2 2 2 1 1 1 1
5 4 4 4 4 4 3 2 2 2 4 5 4 4 4 3 3 3 3 2 2 2 2 2 2 2 2 2 2 2 2 2 2 1 1 2 2 2 2 1 1 1 1
5 4 4 4 4 4 4 2 4 3 3 3 4 4 3 3 4 5 4 3 3 5 4 2 2 1 1 1 1 2 2 2 1 1 1 1 2 2 2 2 1 1 1
4 4 3 4 4 4 4 4 3 3 4 4 4 4 5 5 6 5 5 5 5 5 3 2 1 1 0 0 1 1 1 1 1 1 1 2 2 2 2 2 2 2 2
4 4 4 3 3 4 4 4 4 4 3 1 2 3 5 6 6 6 6 6 4 2 2 2 1 1 1 0 0 0 1 1 1 1 1 2 2 2 2 2 2 3 2
3 3 3 3 4 4 4 4 4 4 3 3 2 2 3 5 5 5 6 3 3 2 2 2 1 1 1 1 0 0 0 1 1 1 1 2 2 2 2 2 2 3 2
2 4 4 3 3 4 4 4 4 4 4 3 3 3 3 3 3 3 2 2 2 2 2 2 2 1 1 1 0 0 0 1 1 1 1 1 2 2 2 3 3 3 2
1 3 4 3 3 4 4 4 4 4 4 4 3 3 5 4 4 3 3 2 2 2 2 2 1 1 1 1 1 0 0 0 0 1 1 2 2 2 2 2 3 3 3
2 2 2 2 3 3 3 4 4 4 4 4 3 3 5 3 3 3 2 2 2 1 2 2 2 1 1 1 1 0 0 0 1 1 1 2 2 2 3 3 3 3 3
2 3 3 2 3 4 4 4 4 4 4 4 4 3 3 3 2 2 2 2 2 2 1 1 2 1 1 1 0 1 0 1 1 1 2 2 2 2 2 3 3 3 3
2 3 3 3 3 3 4 3 3 4 4 3 3 3 3 3 3 2 2 2 2 2 2 1 2 2 2 2 1 1 1 1 1 1 2 2 2 2 3 3 3 4 4
3 3 3 3 4 4 4 3 3 3 3 3 3 3 3 3 3 2 2 2 2 2 2 2 2 2 3 3 2 2 2 2 2 2 1 1 2 3 3 4 3 4 4
3 3 3 3 3 3 4 3 3 4 3 3 3 2 3 3 3 3 3 3 2 2 2 2 3 3 3 2 3 3 2 2 2 2 1 1 1 2 3 3 4 4 4
Wind_Direction
195 195 194 189 183 177 184 197 198 199 192 194 201 196 190 205 201 196 240 260 261 276 278 263 275 272 264 254 236 233 233 234 253 267 246 262 249 265 286 276 271 272 268
189 186 191 183 171 175 185 191 187 191 190 185 181 175 195 207 194 200 237 259 258 272 279 278 288 297 293 290 267 252 242 231 240 262 267 259 257 267 273 275 284 277 275
174 176 183 181 178 184 187 181 179 182 182 175 178 181 197 199 201 211 216 232 239 253 257 261 283 286 296 294 281 276 268 253 236 243 257 246 253 267 275 286 296 306 313
173 179 190 189 181 185 180 167 173 187 187 178 177 180 189 195 205 205 195 204 217 251 278 278 303 301 298 298 286 278 273 265 243 245 256 258 262 268 244 288 316 326 315
181 190 198 190 179 175 175 174 177 180 182 164 164 172 182 197 225 206 191 176 159 127 42 346 315 318 313 307 308 293 269 251 246 248 265 283 276 285 273 256 278 310 302
188 201 194 183 180 179 179 173 168 168 163 154 171 180 190 222 216 187 174 161 150 145 117 337 348 350 349 355 4 10 12 261 255 251 250 264 266 269 274 247 228 295 280
186 191 186 183 182 183 180 171 173 173 165 165 173 176 188 203 186 176 176 155 143 139 128 342 343 355 354 346 353 13 22 24 25 264 271 277 280 275 260 248 237 239 248
180 181 177 179 182 177 172 175 173 162 163 166 164 159 159 119 126 142 147 140 124 111 95 357 329 333 348 343 354 22 16 9 356 325 270 287 299 302 250 240 231 217 170
184 183 176 174 180 180 180 180 170 153 156 161 151 149 149 111 93 143 145 131 119 94 59 42 20 350 356 24 72 15 355 345 356 18 16 340 358 41 77 105 96 120 274
190 184 171 174 181 184 180 174 165 156 161 159 149 146 146 138 116 140 142 133 132 118 60 42 42 34 25 49 87 73 349 334 348 8 18 21 19 31 56 101 169 154 17
167 157 161 165 169 173 168 162 154 148 149 157 152 140 134 130 123 125 135 146 164 164 150 51 25 37 43 53 68 62 320 333 15 27 24 22 23 19 11 3 312 210 211
134 142 142 145 154 151 153 156 154 152 158 162 153 149 137 123 102 128 136 136 147 161 175 166 60 57 61 62 63 44 48 65 68 52 31 10 4 355 341 330 318 294 286
126 139 138 134 138 143 151 154 155 158 160 167 172 182 179 157 76 119 158 158 157 158 147 122 101 92 87 71 51 48 54 64 61 44 8 339 332 327 339 346 352 354 9
138 137 144 152 151 151 158 159 163 171 173 173 186 190 179 167 174 182 179 159 155 127 94 95 93 85 76 66 50 42 38 39 43 20 346 339 343 353 4 3 2 356 355
145 152 162 166 161 155 140 134 163 179 189 178 188 186 182 193 204 184 171 169 164 151 125 90 74 66 57 48 43 38 34 36 33 16 9 4 359 358 357 357 3 9 9
158 165 167 170 164 157 152 127 69 88 104 130 155 164 163 162 158 161 157 140 129 131 115 104 95 90 77 52 44 32 25 16 6 3 4 2 352 345 345 350 345 325 304
167 171 171 173 172 169 165 165 154 86 80 92 118 137 138 135 138 143 143 130 119 123 109 117 118 118 103 76 46 26 7 358 2 6 359 358 353 348 348 348 345 333 320
158 165 168 171 169 170 172 170 172 165 160 126 86 115 134 135 137 140 135 118 105 111 126 139 147 144 137 123 76 342 354 19 24 11 0 357 356 345 343 343 339 329 317
156 169 167 166 164 164 164 163 164 168 164 145 120 100 118 127 125 132 137 128 144 154 159 155 163 161 156 150 170 312 9 21 17 9 2 356 348 340 331 329 327 326 318
169 168 159 159 159 157 160 165 164 163 159 157 163 160 147 132 133 146 155 151 154 162 167 170 174 170 161 150 151 98 42 22 12 1 348 343 336 325 319 323 327 324 315
154 160 152 149 160 163 165 169 166 160 162 167 171 164 159 160 165 168 173 172 171 174 173 173 175 173 164 156 148 125 116 340 344 334 328 324 321 314 309 311 314 310 310
154 150 147 148 150 154 157 157 154 154 158 160 150 143 157 155 162 165 169 172 173 170 161 152 149 148 151 158 173 177 209 282 309 310 308 313 319 315 312 314 321 320 316
144 134 129 128 133 137 139 140 144 147 148 151 152 151 156 163 164 166 164 159 150 142 127 125 126 116 103 102 108 133 184 261 274 276 287 297 303 305 308 310 312 313 313
137 133 131 129 131 134 137 141 141 140 141 146 153 157 160 163 163 160 158 151 145 138 135 136 130 125 111 87 64 49 25 342 309 276 279 287 297 303 305 306 304 304 301
124 124 122 127 133 135 135 135 136 134 135 143 148 148 149 149 146 141 135 123 121 114 109 109 112 104 97 85 70 54 36 24 9 347 319 306 311 314 314 311 312 311 311
115 116 115 117 123 129 129 130 133 134 141 143 141 142 144 140 133 127 124 121 122 114 104 95 95 95 90 82 69 58 51 38 24 3 348 343 338 336 330 318 320 317 317